| time (UTC) | temp C | wind direction | speed KPH | gust KPH | rain 1hr cm | rain 24hr cm | rain mn cm | humidity % | barometer mb |
| 20260902101555 | 29 | 251 | 3.2 | 12.9 | 0.00 | 0.00 | 0.00 | 66 | 1020.8 |
| 20260902100054 | 28 | 251 | 4.8 | 8.0 | 0.00 | 0.00 | 0.00 | 66 | 1020.6 |
| 20260902094551 | 28 | 251 | 0.0 | 6.4 | 0.00 | 0.00 | 0.00 | 66 | 1020.7 |
| 20260902093108 | 28 | 251 | 0.0 | 3.2 | 0.00 | 0.00 | 0.00 | 66 | 1020.6 |
| 20260902091555 | 27 | 261 | 1.6 | 6.4 | 0.00 | 0.00 | 0.00 | 65 | 1020.6 |
| 20260902084556 | 26 | 0 | 1.6 | 9.7 | 0.00 | 0.00 | 0.00 | 65 | 1020.4 |
| 20260902083052 | 26 | 261 | 6.4 | 14.5 | 0.00 | 0.00 | 0.00 | 65 | 1020.3 |
| 20260902081559 | 26 | 120 | 4.8 | 12.9 | 0.00 | 0.00 | 0.00 | 65 | 1020.3 |
| 20260902080059 | 25 | 120 | 6.4 | 9.7 | 0.00 | 0.00 | 0.00 | 65 | 1020.3 |
| 20260902074611 | 25 | 120 | 3.2 | 9.7 | 0.00 | 0.00 | 0.00 | 64 | 1020.5 |
| 20260902073053 | 23 | 120 | 3.2 | 8.0 | 0.00 | 0.00 | 0.00 | 64 | 1020.2 |
| 20260902071556 | 23 | 120 | 4.8 | 11.3 | 0.00 | 0.00 | 0.00 | 64 | 1020.2 |
| 20260902064555 | 22 | 120 | 8.0 | 12.9 | 0.00 | 0.00 | 0.00 | 64 | 1019.9 |
| 20260902063055 | 22 | 120 | 3.2 | 8.0 | 0.00 | 0.00 | 0.00 | 63 | 1020.0 |
| 20260902061558 | 21 | 120 | 4.8 | 8.0 | 0.00 | 0.00 | 0.00 | 63 | 1019.7 |
| 20260902060104 | 21 | 120 | 3.2 | 9.7 | 0.00 | 0.00 | 0.00 | 63 | 1019.6 |
| 20260902054556 | 21 | 120 | 3.2 | 4.8 | 0.00 | 0.00 | 0.00 | 63 | 1019.5 |
| 20260902053101 | 22 | 120 | 3.2 | 6.4 | 0.00 | 0.00 | 0.00 | 63 | 1019.5 |
| 20260902051554 | 22 | 120 | 4.8 | 8.0 | 0.00 | 0.00 | 0.00 | 63 | 1019.2 |
| 20260902050059 | 22 | 120 | 1.6 | 6.4 | 0.00 | 0.00 | 0.00 | 63 | 1019.1 |
| 20260902044557 | 22 | 120 | 3.2 | 9.7 | 0.00 | 0.00 | 0.00 | 63 | 1019.1 |
| 20260902043055 | 22 | 120 | 4.8 | 11.3 | 0.00 | 0.00 | 0.00 | 63 | 1018.9 |
| 20260902041558 | 22 | 120 | 4.8 | 12.9 | 0.00 | 0.00 | 0.00 | 63 | 1018.9 |
| 20260902034605 | 22 | 120 | 1.6 | 11.3 | 0.00 | 0.00 | 0.00 | 63 | 1019.1 |
| 20260902033102 | 23 | 120 | 3.2 | 9.7 | 0.00 | 0.00 | 0.00 | 63 | 1019.2 |
| 20260902031602 | 23 | 120 | 9.7 | 17.7 | 0.00 | 0.00 | 0.00 | 63 | 1019.1 |
| 20260902030056 | 23 | 121 | 9.7 | 17.7 | 0.00 | 0.00 | 0.00 | 63 | 1019.2 |
| 20260902024555 | 23 | 122 | 9.7 | 17.7 | 0.00 | 0.00 | 0.00 | 63 | 1019.1 |
| 20260902023052 | 23 | 122 | 8.0 | 14.5 | 0.00 | 0.00 | 0.00 | 63 | 1019.1 |
| 20260902021546 | 23 | 122 | 9.7 | 17.7 | 0.00 | 0.00 | 0.00 | 63 | 1019.1 |
| 20260902020101 | 23 | 124 | 12.9 | 20.9 | 0.00 | 0.00 | 0.00 | 63 | 1019.3 |
| 20260902014556 | 23 | 135 | 8.0 | 12.9 | 0.00 | 0.00 | 0.00 | 63 | 1019.3 |
| 20260902013052 | 23 | 135 | 9.7 | 14.5 | 0.00 | 0.00 | 0.00 | 63 | 1019.4 |
| 20260902011559 | 23 | 136 | 9.7 | 19.3 | 0.00 | 0.00 | 0.00 | 63 | 1019.7 |
| 20260902010057 | 23 | 139 | 8.0 | 14.5 | 0.00 | 0.00 | 0.00 | 63 | 1019.5 |
| 20260902004557 | 23 | 139 | 8.0 | 14.5 | 0.00 | 0.00 | 0.00 | 63 | 1019.8 |
| 20260902003104 | 23 | 141 | 4.8 | 16.1 | 0.00 | 0.00 | 0.00 | 63 | 1019.9 |
| 20260902001558 | 23 | 141 | 8.0 | 11.3 | 0.00 | 0.00 | 0.00 | 63 | 1020.1 |
| 20260902000051 | 23 | 142 | 8.0 | 11.3 | 0.00 | 0.00 | 0.00 | 63 | 1020.2 |
| 20260901234610 | 23 | 142 | 6.4 | 11.3 | 0.00 | 0.00 | 0.00 | 63 | 1020.3 |
| 20260901233101 | 23 | 142 | 4.8 | 9.7 | 0.00 | 0.00 | 0.00 | 63 | 1020.2 |
| 20260901231558 | 23 | 142 | 6.4 | 11.3 | 0.00 | 0.00 | 0.00 | 63 | 1020.2 |
| 20260901230056 | 23 | 142 | 6.4 | 11.3 | 0.00 | 0.00 | 0.00 | 63 | 1020.0 |
| 20260901224549 | 23 | 142 | 3.2 | 6.4 | 0.00 | 0.00 | 0.00 | 63 | 1020.1 |
| 20260901223058 | 22 | 0 | 0.0 | 0.0 | 0.00 | 0.00 | 0.00 | 63 | 1020.3 |
| 20260901221557 | 23 | 0 | 0.0 | 1.6 | 0.00 | 0.00 | 0.00 | 63 | 1020.4 |
| 20260901220114 | 23 | 0 | 0.0 | 0.0 | 0.00 | 0.00 | 0.00 | 64 | 1020.3 |
| 20260901214601 | 24 | 0 | 0.0 | 0.0 | 0.00 | 0.00 | 0.00 | 64 | 1020.5 |
| 20260901213057 | 25 | 0 | 0.0 | 1.6 | 0.00 | 0.00 | 0.00 | 64 | 1020.5 |
| 20260901211557 | 25 | 0 | 0.0 | 1.6 | 0.00 | 0.00 | 0.00 | 64 | 1020.4 |
| 20260901210055 | 25 | 0 | 1.6 | 9.7 | 0.00 | 0.00 | 0.00 | 64 | 1020.3 |
| 20260901204553 | 24 | 142 | 0.0 | 1.6 | 0.00 | 0.00 | 0.00 | 64 | 1019.9 |
| 20260901203103 | 25 | 0 | 0.0 | 0.0 | 0.00 | 0.00 | 0.00 | 64 | 1019.7 |
| 20260901201601 | 25 | 0 | 0.0 | 4.8 | 0.00 | 0.00 | 0.00 | 64 | 1019.5 |
| 20260901200055 | 26 | 142 | 0.0 | 1.6 | 0.00 | 0.00 | 0.00 | 64 | 1018.9 |
| 20260901194601 | 26 | 0 | 0.0 | 0.0 | 0.00 | 0.00 | 0.00 | 65 | 1018.5 |
| 20260901193102 | 26 | 142 | 0.0 | 4.8 | 0.00 | 0.00 | 0.00 | 65 | 1018.3 |
| 20260901191557 | 27 | 142 | 3.2 | 6.4 | 0.00 | 0.00 | 0.00 | 65 | 1018.1 |
| 20260901190054 | 27 | 142 | 3.2 | 4.8 | 0.00 | 0.00 | 0.00 | 65 | 1017.9 |
| 20260901184558 | 28 | 142 | 3.2 | 9.7 | 0.00 | 0.00 | 0.00 | 66 | 1017.8 |
| 20260901183058 | 28 | 142 | 6.4 | 11.3 | 0.00 | 0.00 | 0.00 | 66 | 1017.8 |
| 20260901181603 | 28 | 142 | 6.4 | 12.9 | 0.00 | 0.00 | 0.00 | 66 | 1017.8 |
| 20260901180058 | 29 | 142 | 8.0 | 14.5 | 0.00 | 0.00 | 0.00 | 66 | 1017.8 |
| 20260901174554 | 30 | 142 | 4.8 | 11.3 | 0.00 | 0.00 | 0.00 | 66 | 1017.9 |
| 20260901173051 | 30 | 142 | 8.0 | 11.3 | 0.00 | 0.00 | 0.00 | 66 | 1017.8 |
| 20260901171557 | 30 | 142 | 6.4 | 12.9 | 0.00 | 0.00 | 0.00 | 67 | 1017.9 |
| 20260901170116 | 30 | 142 | 4.8 | 12.9 | 0.00 | 0.00 | 0.00 | 67 | 1018.0 |
| 20260901164554 | 30 | 142 | 8.0 | 16.1 | 0.00 | 0.00 | 0.00 | 67 | 1018.0 |
| 20260901163051 | 30 | 142 | 11.3 | 17.7 | 0.00 | 0.00 | 0.00 | 67 | 1018.0 |
| 20260901161604 | 30 | 142 | 6.4 | 14.5 | 0.00 | 0.00 | 0.00 | 67 | 1018.1 |
| 20260901160056 | 29 | 141 | 9.7 | 19.3 | 0.00 | 0.00 | 0.00 | 67 | 1018.3 |
| 20260901154602 | 29 | 139 | 6.4 | 19.3 | 0.00 | 0.00 | 0.00 | 67 | 1018.4 |
| 20260901153053 | 29 | 135 | 8.0 | 17.7 | 0.00 | 0.00 | 0.00 | 67 | 1018.5 |
| 20260901151559 | 28 | 134 | 11.3 | 19.3 | 0.00 | 0.00 | 0.00 | 67 | 1018.6 |
| 20260901150106 | 28 | 131 | 8.0 | 19.3 | 0.00 | 0.00 | 0.00 | 67 | 1018.5 |
| 20260901144557 | 28 | 129 | 9.7 | 16.1 | 0.00 | 0.00 | 0.00 | 67 | 1018.4 |
| 20260901143100 | 28 | 129 | 8.0 | 14.5 | 0.00 | 0.00 | 0.00 | 67 | 1018.5 |
| 20260901141556 | 28 | 129 | 8.0 | 17.7 | 0.00 | 0.00 | 0.00 | 67 | 1018.6 |
| 20260901140105 | 28 | 129 | 11.3 | 16.1 | 0.00 | 0.00 | 0.00 | 67 | 1018.8 |
| 20260901134553 | 28 | 129 | 6.4 | 16.1 | 0.00 | 0.00 | 0.00 | 67 | 1018.9 |
| 20260901133050 | 28 | 129 | 6.4 | 16.1 | 0.00 | 0.00 | 0.00 | 67 | 1019.2 |
| 20260901131553 | 27 | 129 | 8.0 | 12.9 | 0.00 | 0.00 | 0.00 | 67 | 1019.1 |
| 20260901130053 | 27 | 129 | 8.0 | 16.1 | 0.00 | 0.00 | 0.00 | 66 | 1019.3 |
| 20260901124549 | 26 | 129 | 8.0 | 12.9 | 0.00 | 0.00 | 0.00 | 66 | 1019.4 |
| 20260901123108 | 25 | 129 | 8.0 | 16.1 | 0.00 | 0.00 | 0.00 | 66 | 1019.4 |
| 20260901121605 | 25 | 129 | 9.7 | 16.1 | 0.00 | 0.00 | 0.00 | 66 | 1019.5 |
| 20260901120059 | 25 | 129 | 12.9 | 19.3 | 0.00 | 0.00 | 0.00 | 66 | 1019.6 |
| 20260901114558 | 25 | 103 | 9.7 | 22.5 | 0.00 | 0.00 | 0.00 | 66 | 1019.7 |
| 20260901113110 | 26 | 82 | 8.0 | 19.3 | 0.00 | 0.00 | 0.00 | 66 | 1020.0 |
| 20260901111559 | 26 | 80 | 8.0 | 16.1 | 0.00 | 0.00 | 0.00 | 66 | 1019.9 |
| 20260901110100 | 28 | 79 | 4.8 | 16.1 | 0.00 | 0.00 | 0.00 | 67 | 1019.9 |
| 20260901104557 | 27 | 79 | 3.2 | 11.3 | 0.00 | 0.00 | 0.00 | 67 | 1019.8 |
| 20260901103052 | 27 | 79 | 9.7 | 20.9 | 0.00 | 0.00 | 0.00 | 67 | 1019.9 |